Time,TemperatureF,DewpointF,PressureIn,WindDirection,WindDirectionDegrees,WindSpeedMPH,WindSpeedGustMPH,Humidity,HourlyPrecipIn,Conditions,Clouds,dailyrainin,SoftwareType,DateUTC
2013-05-08 00:00:00,52.9,53.0,29.94,NE,56,0.0,0.0,100,0.00,,,0.02,weatherlink.com 1.10,2013-05-08 04:00:00,
2013-05-08 00:15:00,52.8,53.0,29.94,NE,56,0.0,0.0,100,0.00,,,0.00,weatherlink.com 1.10,2013-05-08 04:15:00,
2013-05-08 00:30:00,52.8,53.0,29.94,NE,56,0.0,0.0,100,0.00,,,0.00,weatherlink.com 1.10,2013-05-08 04:30:00,
2013-05-08 00:45:00,52.8,53.0,29.94,NE,56,0.0,0.0,100,0.00,,,0.00,weatherlink.com 1.10,2013-05-08 04:45:00,
2013-05-08 01:00:00,52.7,53.0,29.93,NE,56,0.0,0.0,100,0.00,,,0.00,weatherlink.com 1.10,2013-05-08 05:00:00,
2013-05-08 01:15:00,52.5,53.0,29.93,NE,56,0.0,0.0,100,0.00,,,0.00,weatherlink.com 1.10,2013-05-08 05:15:00,
2013-05-08 01:30:00,52.8,53.0,29.93,NE,56,0.0,1.0,100,0.00,,,0.00,weatherlink.com 1.10,2013-05-08 05:30:00,
2013-05-08 01:45:00,52.9,53.0,29.93,NE,47,0.0,2.0,100,0.01,,,0.01,weatherlink.com 1.10,2013-05-08 05:45:00,
2013-05-08 02:00:00,53.0,53.0,29.93,NNW,329,0.0,3.0,100,0.01,,,0.01,weatherlink.com 1.10,2013-05-08 06:00:00,
2013-05-08 02:15:00,52.9,53.0,29.92,NNW,329,0.0,0.0,100,0.01,,,0.01,weatherlink.com 1.10,2013-05-08 06:15:00,
2013-05-08 02:30:00,52.7,53.0,29.91,NNW,329,0.0,0.0,100,0.01,,,0.01,weatherlink.com 1.10,2013-05-08 06:30:00,
2013-05-08 02:45:00,52.5,53.0,29.91,NNW,329,0.0,0.0,100,0.00,,,0.01,weatherlink.com 1.10,2013-05-08 06:45:00,
2013-05-08 03:00:00,52.5,53.0,29.91,NNW,329,0.0,0.0,100,0.00,,,0.01,weatherlink.com 1.10,2013-05-08 07:00:00,
2013-05-08 03:15:00,52.2,52.0,29.91,NNW,329,0.0,0.0,100,0.00,,,0.01,weatherlink.com 1.10,2013-05-08 07:15:00,
2013-05-08 03:30:00,52.2,52.0,29.91,NNW,329,0.0,0.0,100,0.00,,,0.01,weatherlink.com 1.10,2013-05-08 07:30:00,
2013-05-08 03:45:00,52.1,52.0,29.91,NNW,329,0.0,0.0,100,0.00,,,0.01,weatherlink.com 1.10,2013-05-08 07:45:00,
2013-05-08 04:00:00,52.2,52.0,29.91,NNW,329,0.0,0.0,100,0.00,,,0.01,weatherlink.com 1.10,2013-05-08 08:00:00,
2013-05-08 04:15:00,51.9,52.0,29.91,NNW,329,0.0,0.0,100,0.00,,,0.01,weatherlink.com 1.10,2013-05-08 08:15:00,
2013-05-08 04:30:00,51.2,51.0,29.91,NNW,329,0.0,0.0,100,0.00,,,0.01,weatherlink.com 1.10,2013-05-08 08:30:00,
2013-05-08 04:45:00,51.1,51.0,29.92,NNW,329,0.0,0.0,100,0.00,,,0.01,weatherlink.com 1.10,2013-05-08 08:45:00,
2013-05-08 05:00:00,50.3,50.0,29.92,NNW,329,0.0,0.0,100,0.00,,,0.01,weatherlink.com 1.10,2013-05-08 09:00:00,
2013-05-08 05:16:00,49.8,50.0,29.92,NNW,329,0.0,0.0,100,0.00,,,0.01,weatherlink.com 1.10,2013-05-08 09:16:00,
2013-05-08 05:31:00,49.5,50.0,29.92,NNW,329,0.0,0.0,100,0.00,,,0.01,weatherlink.com 1.10,2013-05-08 09:31:00,
2013-05-08 05:46:00,49.5,50.0,29.92,NNW,329,0.0,0.0,100,0.00,,,0.01,weatherlink.com 1.10,2013-05-08 09:46:00,
2013-05-08 06:01:00,49.0,49.0,29.92,NNW,329,0.0,0.0,100,0.00,,,0.01,weatherlink.com 1.10,2013-05-08 10:01:00,
2013-05-08 06:16:00,49.1,49.0,29.93,NNW,329,0.0,0.0,100,0.00,,,0.01,weatherlink.com 1.10,2013-05-08 10:16:00,
2013-05-08 06:31:00,49.4,49.0,29.93,NNW,329,0.0,0.0,100,0.00,,,0.01,weatherlink.com 1.10,2013-05-08 10:31:00,
2013-05-08 06:46:00,49.3,49.0,29.94,NNW,329,0.0,0.0,100,0.00,,,0.01,weatherlink.com 1.10,2013-05-08 10:46:00,
2013-05-08 07:01:00,49.3,49.0,29.94,NNW,329,0.0,0.0,100,0.00,,,0.01,weatherlink.com 1.10,2013-05-08 11:01:00,
2013-05-08 07:16:00,49.2,49.0,29.95,NNW,330,0.0,0.0,100,0.00,,,0.01,weatherlink.com 1.10,2013-05-08 11:16:00,
2013-05-08 07:31:00,48.9,49.0,29.96,NNW,329,0.0,0.0,100,0.00,,,0.01,weatherlink.com 1.10,2013-05-08 11:31:00,
2013-05-08 07:46:00,49.4,49.0,29.96,NNW,329,0.0,0.0,100,0.00,,,0.01,weatherlink.com 1.10,2013-05-08 11:46:00,
2013-05-08 08:01:00,50.4,50.0,29.96,NNW,329,0.0,0.0,100,0.00,,,0.01,weatherlink.com 1.10,2013-05-08 12:01:00,
2013-05-08 08:16:00,51.6,52.0,29.96,NNW,329,0.0,0.0,100,0.00,,,0.01,weatherlink.com 1.10,2013-05-08 12:16:00,
2013-05-08 08:31:00,51.6,52.0,29.97,NNW,329,0.0,0.0,100,0.00,,,0.01,weatherlink.com 1.10,2013-05-08 12:31:00,
2013-05-08 08:46:00,52.8,53.0,29.97,NNW,329,0.0,0.0,100,0.00,,,0.01,weatherlink.com 1.10,2013-05-08 12:46:00,
2013-05-08 09:02:00,54.5,55.0,29.97,WSW,254,2.0,4.0,100,0.00,,,0.01,weatherlink.com 1.10,2013-05-08 13:02:00,
2013-05-08 09:16:00,56.2,56.0,29.98,WSW,237,0.0,3.0,100,0.00,,,0.01,weatherlink.com 1.10,2013-05-08 13:16:00,
2013-05-08 09:31:00,58.1,57.0,29.97,SSW,195,0.0,4.0,96,0.00,,,0.01,weatherlink.com 1.10,2013-05-08 13:31:00,
2013-05-08 09:46:00,60.2,58.0,29.97,SSW,195,0.0,2.0,93,0.00,,,0.01,weatherlink.com 1.10,2013-05-08 13:46:00,
2013-05-08 10:01:00,62.8,59.0,29.98,SSW,197,0.0,3.0,87,0.01,,,0.02,weatherlink.com 1.10,2013-05-08 14:01:00,
2013-05-08 10:16:00,62.7,59.0,29.97,South,172,1.0,1.0,87,0.01,,,0.02,weatherlink.com 1.10,2013-05-08 14:16:00,
2013-05-08 10:31:00,62.4,58.0,29.97,ESE,108,2.0,5.0,85,0.01,,,0.02,weatherlink.com 1.10,2013-05-08 14:31:00,
2013-05-08 10:46:00,62.8,58.0,29.97,SW,220,2.0,5.0,84,0.00,,,0.02,weatherlink.com 1.10,2013-05-08 14:46:00,
2013-05-08 11:01:00,63.8,58.0,29.97,NNE,25,1.0,4.0,81,0.00,,,0.02,weatherlink.com 1.10,2013-05-08 15:01:00,
2013-05-08 11:16:00,65.5,58.0,29.97,SW,220,1.0,4.0,76,0.00,,,0.02,weatherlink.com 1.10,2013-05-08 15:16:00,
2013-05-08 11:31:00,65.9,58.0,29.97,ESE,117,1.0,6.0,75,0.00,,,0.02,weatherlink.com 1.10,2013-05-08 15:31:00,
2013-05-08 11:46:00,66.5,59.0,29.97,ESE,112,4.0,4.0,78,0.00,,,0.02,weatherlink.com 1.10,2013-05-08 15:46:00,
2013-05-08 12:01:00,67.6,57.0,29.97,SW,236,1.0,5.0,68,0.00,,,0.02,weatherlink.com 1.10,2013-05-08 16:01:00,
2013-05-08 12:16:00,67.9,57.0,29.96,East,87,2.0,6.0,68,0.00,,,0.02,weatherlink.com 1.10,2013-05-08 16:16:00,
2013-05-08 12:31:00,69.7,58.0,29.96,East,83,5.0,5.0,66,0.00,,,0.02,weatherlink.com 1.10,2013-05-08 16:31:00,
2013-05-08 12:47:00,69.8,56.0,29.96,SW,230,1.0,9.0,62,0.00,,,0.02,weatherlink.com 1.10,2013-05-08 16:47:00,
2013-05-08 13:02:00,71.3,57.0,29.95,East,93,6.0,8.0,60,0.00,,,0.02,weatherlink.com 1.10,2013-05-08 17:02:00,
2013-05-08 13:17:00,70.4,56.0,29.95,East,97,4.0,8.0,61,0.00,,,0.02,weatherlink.com 1.10,2013-05-08 17:17:00,
2013-05-08 13:32:00,70.5,57.0,29.95,ESE,116,2.0,8.0,62,0.00,,,0.02,weatherlink.com 1.10,2013-05-08 17:32:00,
2013-05-08 13:47:00,70.8,56.0,29.95,WSW,247,0.0,5.0,60,0.00,,,0.02,weatherlink.com 1.10,2013-05-08 17:47:00,
2013-05-08 14:02:00,72.0,58.0,29.94,West,279,0.0,6.0,61,0.00,,,0.02,weatherlink.com 1.10,2013-05-08 18:02:00,
2013-05-08 14:17:00,73.6,57.0,29.94,West,281,1.0,7.0,56,0.00,,,0.02,weatherlink.com 1.10,2013-05-08 18:17:00,
2013-05-08 14:32:00,73.1,57.0,29.95,East,90,1.0,8.0,57,0.00,,,0.02,weatherlink.com 1.10,2013-05-08 18:32:00,
2013-05-08 14:47:00,73.7,57.0,29.94,SW,217,1.0,7.0,56,0.00,,,0.02,weatherlink.com 1.10,2013-05-08 18:47:00,
2013-05-08 15:02:00,72.2,56.0,29.94,ESE,123,0.0,7.0,57,0.00,,,0.02,weatherlink.com 1.10,2013-05-08 19:02:00,
2013-05-08 15:17:00,73.0,57.0,29.94,SSE,150,1.0,8.0,58,0.00,,,0.02,weatherlink.com 1.10,2013-05-08 19:17:00,
2013-05-08 15:32:00,72.7,58.0,29.94,East,94,0.0,6.0,60,0.00,,,0.02,weatherlink.com 1.10,2013-05-08 19:32:00,
2013-05-08 15:47:00,73.1,58.0,29.93,South,176,0.0,6.0,59,0.00,,,0.02,weatherlink.com 1.10,2013-05-08 19:47:00,
2013-05-08 16:02:00,73.3,58.0,29.93,WSW,239,3.0,7.0,60,0.00,,,0.02,weatherlink.com 1.10,2013-05-08 20:02:00,
2013-05-08 16:17:00,74.4,59.0,29.93,SSW,204,0.0,3.0,59,0.00,,,0.02,weatherlink.com 1.10,2013-05-08 20:17:00,
2013-05-08 16:32:00,73.6,57.0,29.93,SW,220,0.0,7.0,57,0.00,,,0.02,weatherlink.com 1.10,2013-05-08 20:32:00,
2013-05-08 16:47:00,72.6,57.0,29.92,SE,136,0.0,8.0,59,0.00,,,0.02,weatherlink.com 1.10,2013-05-08 20:47:00,
2013-05-08 17:02:00,73.4,58.0,29.92,South,191,4.0,8.0,59,0.00,,,0.02,weatherlink.com 1.10,2013-05-08 21:02:00,
2013-05-08 17:17:00,72.9,59.0,29.92,SSW,192,0.0,4.0,61,0.00,,,0.02,weatherlink.com 1.10,2013-05-08 21:17:00,
2013-05-08 17:32:00,72.6,59.0,29.93,WSW,240,0.0,4.0,62,0.00,,,0.02,weatherlink.com 1.10,2013-05-08 21:32:00,
2013-05-08 17:47:00,72.2,59.0,29.93,East,100,0.0,5.0,63,0.00,,,0.02,weatherlink.com 1.10,2013-05-08 21:47:00,
2013-05-08 18:02:00,71.8,59.0,29.93,SSW,208,1.0,4.0,65,0.00,,,0.02,weatherlink.com 1.10,2013-05-08 22:02:00,
2013-05-08 18:17:00,71.9,60.0,29.92,SSW,208,0.0,3.0,66,0.00,,,0.02,weatherlink.com 1.10,2013-05-08 22:17:00,
2013-05-08 18:32:00,72.0,59.0,29.92,SW,216,0.0,2.0,64,0.00,,,0.02,weatherlink.com 1.10,2013-05-08 22:32:00,
2013-05-08 18:47:00,72.2,59.0,29.92,SSW,212,2.0,3.0,64,0.00,,,0.02,weatherlink.com 1.10,2013-05-08 22:47:00,
2013-05-08 19:02:00,72.0,59.0,29.93,SE,144,1.0,3.0,64,0.00,,,0.02,weatherlink.com 1.10,2013-05-08 23:02:00,
2013-05-08 19:17:00,71.5,59.0,29.93,SSW,203,3.0,3.0,65,0.00,,,0.02,weatherlink.com 1.10,2013-05-08 23:17:00,
2013-05-08 19:32:00,70.5,58.0,29.93,South,187,0.0,3.0,65,0.00,,,0.02,weatherlink.com 1.10,2013-05-08 23:32:00,
2013-05-08 19:47:00,69.6,58.0,29.94,South,189,0.0,1.0,66,0.00,,,0.02,weatherlink.com 1.10,2013-05-08 23:47:00,
2013-05-08 20:02:00,68.7,58.0,29.95,SSW,193,0.0,1.0,68,0.00,,,0.02,weatherlink.com 1.10,2013-05-09 00:02:00,
2013-05-08 20:17:00,68.2,58.0,29.95,SSW,193,0.0,1.0,69,0.00,,,0.02,weatherlink.com 1.10,2013-05-09 00:17:00,
2013-05-08 20:32:00,67.6,57.0,29.95,SSW,193,0.0,0.0,70,0.00,,,0.02,weatherlink.com 1.10,2013-05-09 00:32:00,
2013-05-08 20:47:00,67.0,57.0,29.96,SSW,193,0.0,0.0,70,0.00,,,0.02,weatherlink.com 1.10,2013-05-09 00:47:00,
2013-05-08 21:03:00,66.0,58.0,29.97,SSW,193,0.0,0.0,75,0.00,,,0.02,weatherlink.com 1.10,2013-05-09 01:03:00,
2013-05-08 21:17:00,65.6,57.0,29.97,SSW,193,0.0,1.0,74,0.00,,,0.02,weatherlink.com 1.10,2013-05-09 01:17:00,
2013-05-08 21:32:00,65.2,57.0,29.97,SSW,193,0.0,0.0,75,0.00,,,0.02,weatherlink.com 1.10,2013-05-09 01:32:00,
2013-05-08 21:47:00,65.1,57.0,29.98,SSW,193,0.0,0.0,75,0.00,,,0.02,weatherlink.com 1.10,2013-05-09 01:47:00,
2013-05-08 22:02:00,64.7,57.0,29.98,SSW,193,0.0,0.0,77,0.00,,,0.02,weatherlink.com 1.10,2013-05-09 02:02:00,
2013-05-08 22:17:00,64.2,57.0,29.99,SSW,193,0.0,1.0,78,0.00,,,0.02,weatherlink.com 1.10,2013-05-09 02:17:00,
2013-05-08 22:32:00,63.7,57.0,29.99,SSW,193,0.0,1.0,78,0.00,,,0.02,weatherlink.com 1.10,2013-05-09 02:32:00,
2013-05-08 22:47:00,62.7,57.0,29.99,SSW,193,0.0,0.0,81,0.00,,,0.02,weatherlink.com 1.10,2013-05-09 02:47:00,
2013-05-08 23:02:00,61.7,57.0,29.99,SSW,193,0.0,0.0,83,0.00,,,0.02,weatherlink.com 1.10,2013-05-09 03:02:00,
2013-05-08 23:17:00,60.5,56.0,29.99,SSW,193,0.0,0.0,85,0.00,,,0.02,weatherlink.com 1.10,2013-05-09 03:17:00,
2013-05-08 23:32:00,59.6,56.0,30.00,SSW,193,0.0,0.0,88,0.00,,,0.02,weatherlink.com 1.10,2013-05-09 03:32:00,
2013-05-08 23:47:00,58.6,56.0,29.99,SSW,193,0.0,0.0,91,0.00,,,0.02,weatherlink.com 1.10,2013-05-09 03:47:00,